DLH4JV EDDF-EDDS

Flight info

Callsign DLH4JV
Flight time 0h 21m
Altitude 13000
Route ANEKI2L/18 ANEKI Y163 NEKLO Y171 INKAM N850 KRH T128 BADSO BADSO2A
Aircraft A321/M-SDE3FGHIRWY/LB1

Departure

Time 2026-05-05 16:28
Airport Frankfurt Main Airport (EDDF)

Arrival

Time 2026-05-05 16:49
Airport Stuttgart Airport (EDDS)
Time Latitude Longitude Altitude Speed Heading
2026-05-05 15:56 50.04431 8.56329 356 ft 0 kts 167°
2026-05-05 16:12 50.04440 8.56325 356 ft 4 kts 167°
2026-05-05 16:12 50.04487 8.56315 358 ft 4 kts 207°
2026-05-05 16:13 50.04515 8.56378 360 ft 0 kts 249°
2026-05-05 16:19 50.04514 8.56373 363 ft 2 kts 249°
2026-05-05 16:20 50.04481 8.56238 363 ft 8 kts 249°
2026-05-05 16:20 50.04410 8.56028 356 ft 9 kts 199°
2026-05-05 16:21 50.04319 8.56069 357 ft 16 kts 166°
2026-05-05 16:22 50.04140 8.55528 356 ft 27 kts 250°
2026-05-05 16:22 50.04025 8.55046 356 ft 21 kts 249°
2026-05-05 16:23 50.03912 8.54574 352 ft 25 kts 250°
2026-05-05 16:23 50.03845 8.54343 352 ft 23 kts 236°
2026-05-05 16:23 50.03731 8.53938 349 ft 19 kts 250°
2026-05-05 16:24 50.03685 8.53745 350 ft 18 kts 250°
2026-05-05 16:24 50.03642 8.53565 337 ft 17 kts 248°
2026-05-05 16:24 50.03559 8.53231 338 ft 19 kts 250°
2026-05-05 16:25 50.03514 8.53043 336 ft 18 kts 249°
2026-05-05 16:25 50.03433 8.52731 331 ft 0 kts 248°
2026-05-05 16:26 50.03392 8.52609 332 ft 8 kts 209°
2026-05-05 16:26 50.03335 8.52596 335 ft 0 kts 181°
2026-05-05 16:27 50.03147 8.52588 336 ft 63 kts 182°
2026-05-05 16:27 50.02482 8.52582 335 ft 127 kts 179°
2026-05-05 16:27 50.01428 8.52605 466 ft 164 kts 180°
2026-05-05 16:28 50.00315 8.52675 1273 ft 160 kts 180°
2026-05-05 16:28 49.99187 8.52740 1871 ft 167 kts 180°
2026-05-05 16:28 49.97948 8.52814 2129 ft 189 kts 180°
2026-05-05 16:28 49.96557 8.52899 2358 ft 211 kts 181°
2026-05-05 16:29 49.95032 8.52995 2722 ft 224 kts 179°
2026-05-05 16:29 49.93469 8.53101 3440 ft 225 kts 180°
2026-05-05 16:29 49.91919 8.53206 4185 ft 227 kts 179°
2026-05-05 16:29 49.90336 8.53313 4921 ft 228 kts 179°
2026-05-05 16:30 49.88736 8.53425 5620 ft 231 kts 179°
2026-05-05 16:30 49.87123 8.53534 6346 ft 232 kts 179°
2026-05-05 16:30 49.85500 8.53646 7036 ft 234 kts 178°
2026-05-05 16:30 49.83869 8.53759 7716 ft 236 kts 178°
2026-05-05 16:31 49.82223 8.53872 8405 ft 238 kts 178°
2026-05-05 16:31 49.80554 8.53984 9078 ft 241 kts 178°
2026-05-05 16:31 49.78872 8.54098 9744 ft 243 kts 178°
2026-05-05 16:31 49.77173 8.54023 10343 ft 246 kts 185°
2026-05-05 16:32 49.75464 8.53790 10954 ft 248 kts 185°
2026-05-05 16:32 49.73737 8.53559 11565 ft 250 kts 184°
2026-05-05 16:32 49.71996 8.53326 12167 ft 252 kts 184°
2026-05-05 16:32 49.70200 8.53087 12472 ft 269 kts 184°
2026-05-05 16:33 49.68263 8.52833 12608 ft 290 kts 184°
2026-05-05 16:33 49.66191 8.52563 12772 ft 309 kts 184°
2026-05-05 16:33 49.63974 8.52442 12831 ft 329 kts 174°
2026-05-05 16:33 49.61733 8.53511 12839 ft 349 kts 152°
2026-05-05 16:34 49.59806 8.55865 12838 ft 357 kts 135°
2026-05-05 16:34 49.58114 8.58681 12837 ft 359 kts 134°
2026-05-05 16:34 49.56449 8.61513 12836 ft 353 kts 134°
2026-05-05 16:34 49.54809 8.64310 12838 ft 352 kts 134°
2026-05-05 16:35 49.53168 8.67111 12839 ft 351 kts 134°
2026-05-05 16:35 49.51536 8.69896 12770 ft 349 kts 134°
2026-05-05 16:35 49.49905 8.72676 12049 ft 354 kts 134°
2026-05-05 16:35 49.48184 8.75595 11843 ft 380 kts 134°
2026-05-05 16:36 49.46360 8.78678 11836 ft 398 kts 134°
2026-05-05 16:36 49.44474 8.81863 11837 ft 404 kts 134°
2026-05-05 16:36 49.42576 8.85063 11836 ft 406 kts 134°
2026-05-05 16:36 49.40671 8.88269 11836 ft 406 kts 134°
2026-05-05 16:37 49.38769 8.91500 11837 ft 410 kts 134°
2026-05-05 16:37 49.36888 8.94721 11830 ft 410 kts 134°
2026-05-05 16:37 49.34996 8.97992 11838 ft 410 kts 134°
2026-05-05 16:37 49.33103 9.01265 11837 ft 409 kts 134°
2026-05-05 16:38 49.31213 9.04529 11838 ft 409 kts 134°
2026-05-05 16:38 49.29323 9.07792 11838 ft 410 kts 134°
2026-05-05 16:38 49.27431 9.11054 11838 ft 410 kts 134°
2026-05-05 16:38 49.25534 9.14320 11837 ft 410 kts 134°
2026-05-05 16:39 49.23641 9.17578 11838 ft 410 kts 134°
2026-05-05 16:39 49.21747 9.20836 11839 ft 410 kts 134°
2026-05-05 16:39 49.19857 9.24091 11837 ft 409 kts 134°
2026-05-05 16:39 49.17815 9.27062 11566 ft 401 kts 146°
2026-05-05 16:40 49.15441 9.29207 10749 ft 394 kts 154°
2026-05-05 16:40 49.13040 9.31196 9947 ft 390 kts 154°
2026-05-05 16:40 49.10668 9.33175 9113 ft 387 kts 154°
2026-05-05 16:40 49.08317 9.35142 8294 ft 383 kts 154°
2026-05-05 16:41 49.05981 9.37086 7953 ft 383 kts 154°
2026-05-05 16:41 49.03640 9.39021 7803 ft 382 kts 154°
2026-05-05 16:41 49.01296 9.40952 7840 ft 380 kts 154°
2026-05-05 16:41 48.99045 9.42812 7838 ft 356 kts 154°
2026-05-05 16:42 48.96943 9.44561 7837 ft 334 kts 154°
2026-05-05 16:42 48.94940 9.46109 7743 ft 312 kts 163°
2026-05-05 16:42 48.92898 9.46992 7426 ft 301 kts 168°
2026-05-05 16:42 48.90898 9.47746 6978 ft 290 kts 169°
2026-05-05 16:43 48.88976 9.48483 6536 ft 280 kts 169°
2026-05-05 16:43 48.87109 9.49204 6096 ft 272 kts 169°
2026-05-05 16:43 48.85319 9.49891 5636 ft 266 kts 169°
2026-05-05 16:43 48.83542 9.50562 5185 ft 261 kts 169°
2026-05-05 16:44 48.81813 9.51202 4795 ft 249 kts 169°
2026-05-05 16:44 48.80174 9.51807 4452 ft 235 kts 169°
2026-05-05 16:44 48.78619 9.52376 4214 ft 226 kts 169°
2026-05-05 16:44 48.77107 9.52612 4019 ft 215 kts 193°
2026-05-05 16:45 48.75730 9.51830 4013 ft 211 kts 212°
2026-05-05 16:45 48.74628 9.50394 4007 ft 210 kts 231°
2026-05-05 16:45 48.73925 9.48466 4004 ft 210 kts 251°
2026-05-05 16:45 48.73526 9.46356 4012 ft 208 kts 253°
2026-05-05 16:46 48.73153 9.44347 3864 ft 188 kts 252°
2026-05-05 16:46 48.72811 9.42512 3635 ft 174 kts 253°
2026-05-05 16:46 48.72494 9.40823 3432 ft 161 kts 253°
2026-05-05 16:46 48.72201 9.39259 3233 ft 150 kts 253°
2026-05-05 16:47 48.71919 9.37756 3033 ft 147 kts 253°
2026-05-05 16:47 48.71640 9.36273 2847 ft 147 kts 254°
2026-05-05 16:47 48.71362 9.34789 2643 ft 145 kts 254°
2026-05-05 16:47 48.71083 9.33306 2452 ft 146 kts 254°
2026-05-05 16:48 48.70804 9.31826 2249 ft 146 kts 254°
2026-05-05 16:48 48.70522 9.30334 2040 ft 149 kts 254°
2026-05-05 16:48 48.70227 9.28832 1817 ft 151 kts 253°
2026-05-05 16:48 48.69926 9.27272 1630 ft 153 kts 255°
2026-05-05 16:49 48.69644 9.25731 1411 ft 153 kts 256°
2026-05-05 16:49 48.69359 9.24183 1226 ft 153 kts 254°
2026-05-05 16:49 48.69108 9.22835 1220 ft 97 kts 254°
2026-05-05 16:49 48.68986 9.22184 1235 ft 49 kts 254°
2026-05-05 16:50 48.68942 9.21753 1247 ft 29 kts 274°
2026-05-05 16:50 48.68980 9.21476 1266 ft 25 kts 284°
2026-05-05 16:50 48.68981 9.21236 1263 ft 22 kts 258°
2026-05-05 16:50 48.68940 9.21030 1267 ft 20 kts 256°
2026-05-05 16:51 48.68908 9.20839 1272 ft 18 kts 254°
2026-05-05 16:51 48.68870 9.20654 1276 ft 21 kts 253°
2026-05-05 16:51 48.68824 9.20412 1282 ft 26 kts 255°
2026-05-05 16:51 48.68775 9.20153 1288 ft 25 kts 254°
2026-05-05 16:52 48.68775 9.19928 1295 ft 17 kts 269°
2026-05-05 16:52 48.68740 9.19788 1298 ft 13 kts 258°
2026-05-05 16:52 48.68722 9.19660 1302 ft 11 kts 257°
2026-05-05 16:52 48.68698 9.19538 1305 ft 14 kts 254°
2026-05-05 16:53 48.68667 9.19371 1310 ft 17 kts 255°
2026-05-05 16:53 48.68644 9.19211 1314 ft 14 kts 278°
2026-05-05 16:53 48.68702 9.19145 1318 ft 10 kts 346°
2026-05-05 16:53 48.68771 9.19197 1317 ft 14 kts 63°
2026-05-05 16:54 48.68781 9.19281 1315 ft 2 kts 114°
2026-05-05 16:54 48.68736 9.19326 1313 ft 6 kts 162°
2026-05-05 16:54 48.68729 9.19329 1313 ft 0 kts 163°